SCP
0 0 0 0 0 0 0 0 0 0 0 0 0 0 0 0 0 0 0 0 0 0 0 0 0 0 0 0 0 0 0 0 0 0 0 0 0 0 0 0 0 0 0
0 0 0 0 0 0 0 0 0 0 0 0 0 0 0 0 0 0 0 0 0 0 0 0 0 0 0 0 0 0 0 0 0 0 0 0 0 0 0 0 0 0 0
0 0 0 0 0 0 0 0 0 0 0 0 0 0 0 0 0 0 0 0 0 0 0 0 0 0 0 0 0 0 0 0 0 0 0 0 0 0 0 0 0 0 0
0 0 0 0 0 0 0 0 0 0 0 0 0 0 0 0 0 0 0 0 0 0 0 0 0 0 0 0 0 0 0 0 0 0 0 0 0 0 0 0 0 0 0
0 0 0 0 0 0 0 0 0 0 0 0 0 0 0 0 0 0 0 0 0 0 0 0 0 0 0 0 0 0 0 0 0 0 0 0 0 0 0 0 0 0 0
0 0 0 0 0 0 0 0 0 0 0 0 0 0 0 0 0 0 0 0 0 0 0 0 0 0 0 0 0 0 0 0 0 0 0 0 0 0 0 0 0 0 0
0 0 0 0 0 0 0 0 0 0 0 0 0 0 0 0 0 0 0 0 0 0 0 0 0 0 0 0 0 0 0 0 0 0 0 0 0 0 0 0 0 0 0
0 0 0 0 0 0 0 0 0 0 0 0 0 0 0 0 0 0 0 0 0 0 0 0 0 0 0 0 0 0 0 0 0 0 0 0 0 0 0 0 0 0 0
0 0 0 0 0 0 0 0 0 0 0 0 0 0 0 0 0 0 0 0 0 0 0 0 0 0 0 0 0 0 0 0 0 0 0 0 0 0 0 0 0 0 0
0 0 0 0 0 0 0 0 0 0 0 0 0 0 0 0 0 0 0 0 0 0 0 0 0 0 0 0 0 0 0 0 0 0 0 0 0 0 0 0 0 0 0
0 0 0 0 0 0 0 0 0 0 0 0 0 0 0 0 0 0 0 0 0 0 0 0 0 0 0 0 0 0 0 0 0 0 0 0 0 0 0 0 0 0 0
0 0 0 0 0 0 0 0 0 0 0 0 0 0 0 0 0 0 0 0 0 0 0 0 0 0 0 0 0 0 0 0 0 0 0 0 0 0 0 0 0 0 0
0 0 0 0 0 0 0 0 0 0 0 0 0 0 0 0 0 0 0 0 0 0 0 0 0 0 0 0 0 0 0 0 0 0 0 0 0 0 0 0 0 0 0
0 0 0 0 0 0 0 0 0 0 0 0 0 0 0 0 0 0 0 0 0 0 0 0 0 0 0 0 0 0 0 0 0 0 0 0 0 0 0 0 0 0 0
0 0 0 0 0 0 0 0 0 0 0 0 0 0 0 0 0 0 0 0 0 0 0 0 0 0 0 0 0 0 0 0 0 0 0 0 0 0 0 0 0 0 0
0 0 0 0 0 0 0 0 0 0 0 0 0 0 0 0 0 0 0 0 0 0 0 0 0 0 0 0 0 0 0 0 0 0 0 0 0 0 0 0 0 0 0
0 0 0 0 0 0 0 0 0 0 0 0 0 0 0 0 0 0 0 0 0 0 0 0 0 0 0 0 0 0 0 0 0 0 0 0 0 0 0 0 0 0 0
0 0 0 0 0 0 0 0 0 0 0 0 0 0 0 0 0 0 0 0 0 0 0 0 0 0 0 0 0 0 0 0 0 0 0 0 0 0 0 0 0 0 0
0 0 0 0 0 0 0 0 0 0 0 0 0 0 0 0 0 0 0 0 0 0 0 0 0 0 0 0 0 0 0 0 0 0 0 0 0 0 0 0 0 0 0
0 0 0 0 0 0 0 0 0 0 0 0 0 0 0 0 0 0 0 0 0 0 0 0 0 0 0 0 0 0 0 0 0 0 0 0 0 0 0 0 0 0 0
0 0 0 0 0 0 0 0 0 0 0 0 0 0 0 0 0 0 0 0 0 0 0 0 0 0 0 0 0 0 0 0 0 0 0 0 0 0 0 0 0 0 0
0 0 0 0 0 0 0 0 0 0 0 0 0 0 0 0 0 0 0 0 0 0 0 0 0 0 0 0 0 0 0 0 0 0 0 0 0 0 0 0 0 0 0
0 0 0 0 0 0 0 0 0 0 0 0 0 0 0 0 0 0 0 0 0 0 0 0 0 0 0 0 0 0 0 0 0 0 0 0 0 0 0 0 0 0 0
0 0 0 0 0 0 0 0 0 0 0 0 0 0 0 0 0 0 0 0 0 0 0 0 0 0 0 0 0 0 0 0 0 0 0 0 0 0 0 0 0 0 0
0 0 0 0 0 0 0 0 0 0 0 0 0 0 0 0 0 0 0 0 0 0 0 0 0 0 0 0 0 0 0 0 0 0 0 0 0 0 0 0 0 0 0
0 0 0 0 0 0 0 0 0 0 0 0 0 0 0 0 0 0 0 0 0 0 0 0 0 0 0 0 0 0 0 0 0 0 0 0 0 0 0 0 0 0 0
Wind_Speed
7 7 8 8 7 8 8 8 7 7 8 10 11 11 11 11 11 12 11 12 14 12 10 11 11 8 7 6 5 5 4 5 5 3 2 4 7 7 5 5 5 5 5
7 7 8 8 8 9 9 8 8 8 8 9 10 10 11 11 11 12 13 13 14 15 13 13 12 10 10 8 7 6 5 5 6 5 3 3 4 6 5 5 5 5 5
7 8 8 9 10 11 10 8 8 8 8 8 9 11 11 11 11 11 12 13 14 14 14 15 14 14 12 9 9 7 5 4 4 5 4 2 2 3 3 4 4 4 5
7 8 10 11 10 10 8 8 8 8 9 9 9 10 10 10 11 10 10 11 11 11 12 13 14 15 15 13 10 9 7 6 6 6 4 3 2 3 3 3 3 4 5
8 9 12 10 8 8 8 8 7 8 8 8 8 8 8 9 9 11 11 11 11 11 10 11 12 13 15 14 11 11 10 7 6 5 4 3 3 3 4 4 4 3 4
8 10 9 7 7 8 8 7 7 8 7 8 9 9 9 8 13 18 14 11 11 11 11 10 9 11 15 18 18 17 16 11 9 6 4 5 6 5 4 4 3 2 3
7 8 7 7 7 7 7 7 8 8 7 8 8 9 10 12 17 18 17 10 10 11 11 11 9 9 11 10 14 16 13 14 14 9 7 7 5 6 5 5 5 5 5
6 6 6 6 7 6 7 8 8 6 7 7 8 8 8 9 16 17 16 10 8 9 10 11 11 11 11 12 11 9 8 8 10 7 6 6 5 5 5 5 5 4 4
5 6 6 6 6 6 7 7 6 5 6 6 6 7 8 8 14 15 15 7 7 8 8 9 10 11 18 19 13 11 9 6 9 10 9 8 9 10 7 3 3 3 5
5 5 4 5 5 6 6 5 4 5 5 5 5 6 6 6 11 15 16 6 7 6 7 8 11 14 19 21 12 11 10 8 7 6 8 10 9 10 13 8 6 6 5
4 3 2 3 4 4 4 3 4 4 4 4 4 4 4 5 9 14 16 7 7 7 7 7 8 17 20 21 15 10 11 9 7 7 6 5 5 6 6 7 7 7 7
3 2 1 1 1 2 3 3 4 5 4 4 3 3 2 3 6 10 15 14 11 7 7 6 8 18 19 19 14 12 13 9 5 5 6 6 6 6 6 7 7 7 7
2 1 1 2 2 3 4 4 3 4 3 3 3 3 2 2 4 9 11 14 14 7 6 11 13 17 17 13 15 15 10 7 6 6 7 6 6 5 4 4 4 4 3
1 1 2 3 3 3 3 3 3 3 3 3 3 2 2 2 2 2 3 5 8 8 6 8 14 16 12 9 8 9 6 6 6 6 5 4 3 4 4 4 4 3 2
1 1 2 2 3 4 3 3 3 2 3 3 2 2 3 2 4 6 4 4 4 5 5 4 4 5 6 5 5 5 5 5 5 4 4 3 3 4 3 3 3 3 3
1 1 1 2 3 3 4 4 8 6 7 7 6 4 2 2 2 5 7 7 8 9 6 4 5 5 5 5 5 4 4 4 4 3 3 3 4 4 3 3 3 3 4
1 1 2 2 3 3 3 4 4 6 9 9 8 6 5 4 2 2 3 5 7 8 4 3 3 4 4 4 4 4 3 3 3 3 3 3 3 3 3 3 3 3 3
2 3 3 3 3 3 3 3 3 3 3 4 7 9 7 6 5 4 3 4 2 2 1 2 2 2 2 3 3 3 3 3 3 3 3 3 3 3 3 3 3 4 3
3 3 3 3 4 4 4 4 4 5 4 4 4 6 8 8 8 8 6 3 3 2 2 2 2 2 2 2 2 2 3 3 3 3 3 3 3 3 3 3 3 4 3
4 6 5 4 5 4 4 4 4 5 5 4 4 3 3 4 4 5 5 4 3 3 3 2 2 2 2 2 2 2 2 2 3 2 2 3 3 3 3 3 3 3 3
4 5 7 6 5 5 5 5 5 4 4 4 4 4 7 4 4 4 4 4 3 3 2 2 2 1 1 1 1 1 2 2 2 2 2 3 3 2 2 2 3 3 2
4 5 6 6 5 5 5 5 5 5 5 5 3 5 8 5 4 3 3 3 2 2 2 1 1 1 1 1 1 2 2 2 2 2 3 3 3 3 3 2 3 3 3
5 6 6 6 5 6 6 5 5 5 4 4 3 3 3 3 3 2 2 2 1 1 1 1 1 0 0 0 1 2 3 3 3 4 4 4 3 3 3 4 4 4 4
6 6 6 6 5 5 5 5 4 4 3 3 3 2 2 2 2 1 1 1 0 0 0 0 1 2 2 2 1 1 2 2 2 3 5 5 4 4 4 4 4 5 4
6 6 6 5 5 4 4 4 3 3 2 2 2 1 1 1 1 1 1 1 1 1 2 2 2 3 4 5 4 4 5 5 4 3 4 4 5 5 5 5 4 4 4
6 6 5 4 4 3 3 3 2 2 1 1 1 1 1 1 1 2 2 2 2 3 3 3 4 5 6 5 6 7 8 8 8 7 5 4 5 5 5 4 5 5 5
Wind_Direction
206 208 210 214 214 214 215 214 205 195 187 186 188 194 198 199 196 196 195 191 196 195 189 187 188 178 176 175 168 163 158 138 139 156 141 146 164 180 190 194 211 223 240
207 208 214 213 213 216 219 213 203 200 193 187 185 192 197 198 198 199 196 193 195 194 191 186 186 179 179 176 173 170 163 146 136 148 151 149 175 184 187 200 212 220 227
206 211 218 219 217 219 218 210 202 198 192 186 186 193 197 197 198 202 200 197 198 197 191 188 185 178 181 176 173 169 158 140 127 140 150 145 154 167 183 211 222 226 232
206 213 223 225 222 221 215 208 201 194 191 190 193 197 198 197 198 199 200 199 198 197 193 190 185 183 182 175 171 166 153 140 130 135 138 148 160 161 169 209 235 231 238
208 218 228 227 221 216 212 207 198 194 193 187 190 198 198 198 200 197 197 198 196 194 192 189 187 185 181 174 169 165 158 150 144 144 154 150 172 173 197 196 222 239 248
215 226 230 226 219 215 209 199 194 193 189 185 192 196 201 206 207 205 198 197 195 191 189 185 179 175 178 179 176 170 166 160 160 161 174 185 200 196 189 194 204 220 259
228 233 231 225 221 215 203 194 196 194 188 193 197 198 206 212 211 209 203 194 195 192 185 178 173 172 166 164 171 171 174 177 171 168 180 196 196 193 187 203 211 219 235
243 241 234 226 225 213 200 201 198 188 190 195 199 201 206 214 214 210 200 193 192 188 182 176 171 168 170 161 158 162 171 183 184 185 190 195 191 183 188 199 208 230 255
257 250 239 224 220 210 207 205 195 186 190 194 193 197 205 212 212 209 197 187 187 183 174 170 170 169 177 173 165 168 176 194 202 201 206 215 220 220 208 188 196 217 257
272 261 242 220 213 211 207 196 183 181 187 184 191 195 200 203 209 209 199 185 183 174 167 171 178 177 181 181 174 173 183 191 186 199 214 226 226 229 228 215 207 219 238
293 282 253 211 202 199 187 170 162 162 163 169 177 183 191 197 211 212 205 187 183 175 175 174 183 189 189 191 186 185 195 182 181 192 203 210 213 216 219 216 211 217 228
318 316 300 154 149 147 146 143 145 148 153 159 162 168 182 189 202 216 213 200 186 178 178 175 185 192 195 197 196 197 198 189 183 196 208 213 215 217 214 210 213 217 224
345 17 54 85 99 119 133 137 135 140 146 152 158 167 169 179 208 216 217 207 194 178 176 181 185 193 197 201 206 204 198 196 199 209 217 221 215 209 194 191 197 207 220
13 65 91 104 104 103 109 119 128 139 143 147 158 162 157 167 189 196 196 196 197 188 180 184 189 195 197 193 197 206 204 203 207 215 214 209 190 184 188 182 185 183 207
69 96 105 107 111 102 93 98 111 107 134 141 149 148 156 178 208 202 186 186 181 174 160 162 175 181 191 192 191 194 197 199 207 211 206 199 188 182 180 166 164 170 192
95 101 102 108 107 107 104 89 83 91 95 99 106 112 108 124 182 199 203 199 190 176 165 172 179 183 188 188 189 191 193 197 195 192 190 187 183 179 174 162 163 182 208
75 88 92 94 101 107 112 115 108 83 78 74 77 83 80 81 101 150 186 185 180 173 172 176 181 183 183 179 179 180 180 173 162 164 171 171 167 169 170 177 182 190 206
55 71 83 88 92 91 91 93 101 105 92 62 52 57 62 67 72 82 123 147 151 158 132 153 165 164 163 163 166 164 156 151 153 160 163 165 166 170 178 186 188 191 199
47 56 69 78 78 79 80 81 82 84 85 77 58 41 37 55 62 59 67 73 89 79 67 71 75 86 95 111 123 133 145 157 158 159 166 170 171 173 184 186 186 189 190
55 59 70 78 77 76 75 79 80 82 81 75 62 39 20 43 56 47 47 52 65 68 65 70 66 72 87 100 113 125 135 151 160 166 172 171 169 171 180 184 186 189 196
63 61 64 71 69 71 73 74 77 81 82 78 55 44 59 65 65 62 59 54 57 61 62 68 73 80 85 96 115 143 162 173 173 171 170 170 165 169 175 179 184 183 183
69 69 69 72 71 69 71 70 75 80 82 80 58 41 53 60 61 65 64 60 54 50 49 65 67 71 110 146 164 175 185 189 187 179 178 175 171 172 173 178 183 184 183
69 76 74 70 72 75 72 66 69 73 73 68 63 54 49 54 55 61 64 59 54 44 34 52 77 27 4 308 202 193 199 204 197 184 181 183 183 184 183 189 190 191 198
65 71 75 73 69 70 73 71 69 71 71 67 61 58 56 54 48 42 32 18 17 352 331 296 234 232 240 244 242 233 221 213 190 187 185 185 189 190 188 191 196 199 203
61 65 67 66 66 66 69 69 67 65 63 61 56 49 40 31 7 322 294 278 272 266 265 258 245 241 239 238 236 235 238 236 213 188 182 185 192 193 193 196 197 199 203
56 60 62 61 60 57 58 59 54 46 38 22 7 345 317 299 285 276 270 263 261 260 260 255 249 248 247 243 242 242 238 235 222 205 188 189 195 199 195 200 201 202 204